Location: Bard
(39.9279°N, 78.6592°W)
Time: 16:52:10
(UTC+00:00)

ARIANE 6 FM1 Upper Stage - Visible Passes

Search period start: 14 December 2025 00:00
Search period end: 24 December 2025 00:00
Orbit: 522 x 611 km, 62.0° (Epoch: 13 December)

Date Brightness Start Highest point End Pass type
(mag) Time Alt. Az. Time Alt. Az. Time Alt. Az.
14 Dec 3.2 11:18:49 10° SSW 11:22:50 60° ESE 11:26:46 10° NE visible
15 Dec 2.5 11:19:08 10° SW 11:23:12 86° NW 11:27:13 10° NE visible
16 Dec 5.7 09:43:03 10° SE 09:45:01 13° ESE 09:46:58 10° E visible
16 Dec 2.6 11:19:37 10° SW 11:23:36 56° NW 11:27:33 10° NNE visible
17 Dec 5.0 09:44:07 18° SE 09:45:15 20° ESE 09:48:14 10° ENE visible
17 Dec 3.1 11:20:19 10° WSW 11:24:03 37° NW 11:27:47 10° NNE visible
18 Dec 4.6 09:46:38 26° E 09:46:38 26° E 09:49:04 10° ENE visible
18 Dec 3.6 11:22:45 19° W 11:24:32 26° NW 11:27:56 10° NNE visible
19 Dec 4.9 09:48:23 19° NE 09:48:23 19° NE 09:49:41 10° NE visible
19 Dec 4.0 11:24:29 18° NW 11:25:03 19° NW 11:27:57 10° N visible
20 Dec 5.3 09:49:42 13° NE 09:49:42 13° NE 09:50:08 10° NE visible
20 Dec 4.4 11:25:47 14° NW 11:25:47 14° NW 11:27:46 10° N visible
21 Dec 4.8 11:26:49 10° NNW 11:26:49 10° NNW 11:26:56 10° NNW visible
